Regional Weather Roundup
Issued by NWS Cleveland, OH

Home | Current Version | Previous Version | Text Only | Print | Product List | Glossary On
Versions: 1 2 3 4 5 6 7 8 9 10 11 12 13 14 15 16 17 18 19 20 21 22 23 24 25 26 27 28 29 30 31 32 33 34 35 36 37 38 39 40 41 42 43 44 45 46 47 48 49 50
000
ASUS41 KCLE 200912
RWRCLE
OHIO REGIONAL WEATHER ROUNDUP
NATIONAL WEATHER SERVICE WILMINGTON, OH
400 AM EST TUE FEB 20 2018

NOTE: "FAIR" INDICATES FEW OR NO CLOUDS BELOW 12,000 FEET WITH NO
SIGNIFICANT WEATHER AND/OR OBSTRUCTIONS TO VISIBILITY.

OHZ001>008-015>018-024>027-034-035-043-044-201000-
   NORTHWEST OHIO

CITY           SKY/WX    TMP DP  RH WIND       PRES   REMARKS
DEFIANCE       CLOUDY    60  56  86 S15       29.96F
FINDLAY        CLOUDY    63  54  72 S25       30.00F
TOLEDO EXPRESS CLOUDY    62  57  83 SW14G23   29.96S
TOLEDO EXEC    MOCLDY    62  55  77 S14G29    29.98S
LIMA           CLOUDY    61  56  83 S16G24    30.01F
$$

OHZ009>014-019>023-028>033-038-089-201000-
   NORTHEAST OHIO

CITY           SKY/WX    TMP DP  RH WIND       PRES   REMARKS
CLE-HOPKINS    CLOUDY    63  54  72 SW17G24   30.07S
CLE-LAKEFRONT  CLOUDY    64  52  64 S20G29    30.04S
CUY CO. ARPT   NOT AVBL
LORAIN-ELYRIA  CLOUDY    62  50  64 SW9G25    30.05S
ASHTABULA      CLOUDY    61  54  77 SW10      30.08R
AKRON-CANTON   MOCLDY    61  52  72 SW20      30.10S
WOOSTER        CLOUDY    58  52  80 SW9       30.10S
MANSFIELD      CLOUDY    61  54  77 S18G26    30.08F
YOUNGSTOWN     CLOUDY    61  52  72 S10       30.10S
$$

OHZ042-051>053-060>062-070>072-077>081-201000-
  SOUTHWEST OHIO

CITY           SKY/WX    TMP DP  RH WIND       PRES   REMARKS
CINC-COVINGTON CLOUDY    60  57  89 S12       30.10S
CINC-LUNKEN    CLOUDY    63  56  78 S12       30.11F
HAMILTON       FAIR      64  56  75 S7G18     30.10S
DAYTON         MOCLDY    62  57  83 S15       30.08S
WRIGHT-PAT AFB CLOUDY    63  56  78 S16       30.08S
DAYTON GENERAL CLOUDY    63  55  75 S14G22    30.09S
WILMINGTON     FAIR      60  56  86 S13       30.12S
$$

OHZ036-037-039>041-045>050-054>059-063>069-073>076-082>088-201000-
  CENTRAL AND SOUTHEAST OHIO

CITY           SKY/WX    TMP DP  RH WIND       PRES   REMARKS
COLUMBUS       CLOUDY    62  54  74 S10       30.12S
OSU AIRPORT    CLOUDY    62  56  80 S15       30.10S
BOLTON FIELD   CLOUDY    61  55  79 SW15      30.13R
RICKENBACK AFB CLOUDY    60  55  83 S12       30.12R
NEWARK         MOCLDY    60  53  77 S7        30.12S
MARION         CLOUDY    60  53  77 S18       30.08S
LANCASTER      FAIR      62  54  74 S10       30.14R
ZANESVILLE     FAIR      62  52  69 S13       30.14S
NEW PHILLY     FAIR      62  53  72 SW8       30.14R
$$




USA.gov is the U.S. government's official web portal to all federal, state and local government web resources and services.